QFA8 KDFW-YSSY

Flight info

Callsign QFA8
Flight time N/A
Altitude 30000
Route WORTH1 ABI DCT AMUKI/N0506F320 DCT UMAXA DCT LAP DCT 2241N11151W 2114N11321W 1715N11753W 1538N12000W 1334N12238W/N0505F340 1309N12312W 1006N12740W 0717N13156W 0507N13536W 0330N13811W 0238N13934W 0016N14314W/N0502F360 0149S14623W 0418S15006W 0657S15458W 0756S15700W 0808S15724W 1039S16247W 1254S16725W/N0494F380 1526S17224W 1747S17639W 1806S17715W 2052S17747E 2258S17415E 2548S17015E 2711S16824E/N0491F400 2837S16621E 2852S16555E 2853S16553E 3026S16300E 3120S16115E DCT GOOMA H258 RIKNI N774 MARLN
Aircraft A388/J-SADE2E3FGHIJ3J4J5M1RWXY/LB1D1

Departure

Time N/A
Airport Dallas Fort Worth International Airport (KDFW)

Arrival

Time 2026-04-26 10:25
Airport Sydney Kingsford Smith International Airport (YSSY)
Time Latitude Longitude Altitude Speed Heading
2026-04-26 09:54 -33.13789 155.13571 40294 ft 485 kts 250°
2026-04-26 09:54 -33.15831 155.05892 40291 ft 485 kts 250°
2026-04-26 09:55 -33.21311 154.91259 40306 ft 482 kts 244°
2026-04-26 09:55 -33.26896 154.76694 40296 ft 482 kts 244°
2026-04-26 09:56 -33.32454 154.62104 40299 ft 482 kts 244°
2026-04-26 09:56 -33.37996 154.47490 40283 ft 481 kts 244°
2026-04-26 09:57 -33.43502 154.32911 40301 ft 480 kts 244°
2026-04-26 09:57 -33.48985 154.18327 40290 ft 480 kts 244°
2026-04-26 09:58 -33.54453 154.03721 40284 ft 480 kts 245°
2026-04-26 09:58 -33.59899 153.89107 40292 ft 480 kts 245°
2026-04-26 09:59 -33.64404 153.76971 40290 ft 480 kts 245°
2026-04-26 09:59 -33.70716 153.59888 40235 ft 472 kts 245°
2026-04-26 10:00 -33.73352 153.52727 39330 ft 468 kts 245°
2026-04-26 10:00 -33.75984 153.45565 37829 ft 470 kts 245°
2026-04-26 10:00 -33.78632 153.38341 36201 ft 473 kts 245°
2026-04-26 10:00 -33.81117 153.31548 34647 ft 478 kts 245°
2026-04-26 10:01 -33.82452 153.27891 33910 ft 477 kts 245°
2026-04-26 10:01 -33.83781 153.24247 33286 ft 473 kts 245°
2026-04-26 10:01 -33.85093 153.20644 32663 ft 469 kts 245°
2026-04-26 10:01 -33.86395 153.17067 32057 ft 465 kts 245°
2026-04-26 10:02 -33.87669 153.13564 31471 ft 462 kts 245°
2026-04-26 10:02 -33.88969 153.09982 30886 ft 458 kts 245°
2026-04-26 10:02 -33.90239 153.06481 30280 ft 455 kts 245°
2026-04-26 10:02 -33.91481 153.03053 29644 ft 451 kts 245°
2026-04-26 10:03 -33.92747 152.99557 29002 ft 447 kts 245°
2026-04-26 10:03 -33.93965 152.96188 28387 ft 443 kts 245°
2026-04-26 10:03 -33.95192 152.92792 27789 ft 440 kts 245°
2026-04-26 10:03 -33.96422 152.89383 27180 ft 436 kts 245°
2026-04-26 10:04 -33.97629 152.86036 26573 ft 433 kts 245°
2026-04-26 10:04 -33.98823 152.82721 26002 ft 430 kts 245°
2026-04-26 10:04 -33.99991 152.79474 25454 ft 426 kts 245°
2026-04-26 10:04 -34.01165 152.76205 24884 ft 423 kts 245°
2026-04-26 10:05 -34.02330 152.72962 24332 ft 421 kts 246°
2026-04-26 10:05 -34.03488 152.69734 23778 ft 418 kts 246°
2026-04-26 10:05 -34.04638 152.66525 23144 ft 415 kts 246°
2026-04-26 10:05 -34.05775 152.63349 22578 ft 411 kts 246°
2026-04-26 10:06 -34.06898 152.60193 21955 ft 408 kts 248°
2026-04-26 10:06 -34.07675 152.56918 21402 ft 405 kts 260°
2026-04-26 10:06 -34.07890 152.53546 20822 ft 403 kts 271°
2026-04-26 10:06 -34.07612 152.50198 20222 ft 400 kts 277°
2026-04-26 10:07 -34.07281 152.46878 19741 ft 396 kts 276°
2026-04-26 10:07 -34.06974 152.43592 19188 ft 394 kts 276°
2026-04-26 10:07 -34.06672 152.40319 18661 ft 391 kts 276°
2026-04-26 10:07 -34.06370 152.37082 18135 ft 387 kts 276°
2026-04-26 10:08 -34.06069 152.33877 17529 ft 384 kts 276°
2026-04-26 10:08 -34.05767 152.30695 16947 ft 382 kts 277°
2026-04-26 10:08 -34.05466 152.27537 16474 ft 376 kts 277°
2026-04-26 10:08 -34.05186 152.24399 15799 ft 376 kts 272°
2026-04-26 10:09 -34.05453 152.21295 15355 ft 370 kts 258°
2026-04-26 10:09 -34.05791 152.19289 15018 ft 367 kts 258°
2026-04-26 10:09 -34.06469 152.15290 14352 ft 362 kts 258°
2026-04-26 10:09 -34.06972 152.12325 13779 ft 360 kts 258°
2026-04-26 10:10 -34.07472 152.09387 13281 ft 355 kts 258°
2026-04-26 10:10 -34.07965 152.06495 12743 ft 352 kts 258°
2026-04-26 10:10 -34.08458 152.03597 12185 ft 349 kts 258°
2026-04-26 10:10 -34.08940 152.00755 11629 ft 347 kts 258°
2026-04-26 10:11 -34.09426 151.97897 11128 ft 344 kts 258°
2026-04-26 10:11 -34.09744 151.96041 10810 ft 341 kts 258°
2026-04-26 10:11 -34.10225 151.93246 10272 ft 339 kts 258°
2026-04-26 10:11 -34.10700 151.90482 9877 ft 331 kts 258°
2026-04-26 10:12 -34.11157 151.87827 9626 ft 313 kts 258°
2026-04-26 10:12 -34.11592 151.85299 9422 ft 295 kts 258°
2026-04-26 10:12 -34.11996 151.82944 8955 ft 288 kts 258°
2026-04-26 10:12 -34.12398 151.80584 8388 ft 285 kts 258°
2026-04-26 10:13 -34.12794 151.78254 7839 ft 282 kts 258°
2026-04-26 10:13 -34.13186 151.75946 7446 ft 279 kts 258°
2026-04-26 10:13 -34.13573 151.73654 7077 ft 278 kts 258°
2026-04-26 10:13 -34.13956 151.71376 6723 ft 276 kts 258°
2026-04-26 10:14 -34.14334 151.69109 6355 ft 274 kts 258°
2026-04-26 10:14 -34.14724 151.66858 5997 ft 273 kts 258°
2026-04-26 10:14 -34.15124 151.64627 5624 ft 271 kts 258°
2026-04-26 10:14 -34.15537 151.62418 5106 ft 269 kts 258°
2026-04-26 10:15 -34.15950 151.60239 4593 ft 264 kts 258°
2026-04-26 10:15 -34.16380 151.58070 3988 ft 266 kts 258°
2026-04-26 10:15 -34.16826 151.55921 3479 ft 263 kts 258°
2026-04-26 10:15 -34.17272 151.53791 3189 ft 259 kts 258°
2026-04-26 10:16 -34.17720 151.51727 3068 ft 249 kts 258°
2026-04-26 10:16 -34.18160 151.49707 3030 ft 249 kts 258°
2026-04-26 10:16 -34.18490 151.47675 3032 ft 246 kts 271°
2026-04-26 10:16 -34.18493 151.45608 3033 ft 247 kts 273°
2026-04-26 10:17 -34.18502 151.43555 3029 ft 243 kts 272°
2026-04-26 10:17 -34.18496 151.41518 3025 ft 243 kts 273°
2026-04-26 10:17 -34.18496 151.39474 3028 ft 244 kts 273°
2026-04-26 10:17 -34.18491 151.37425 3028 ft 244 kts 273°
2026-04-26 10:18 -34.18497 151.35376 3029 ft 246 kts 272°
2026-04-26 10:18 -34.18443 151.33325 3032 ft 242 kts 279°
2026-04-26 10:18 -34.18180 151.31352 3023 ft 232 kts 283°
2026-04-26 10:18 -34.17915 151.29476 3030 ft 222 kts 283°
2026-04-26 10:19 -34.17668 151.27672 3041 ft 215 kts 283°
2026-04-26 10:19 -34.17438 151.25933 3027 ft 203 kts 285°
2026-04-26 10:19 -34.16916 151.24462 3024 ft 180 kts 311°
2026-04-26 10:19 -34.15967 151.23494 3034 ft 182 kts 332°
2026-04-26 10:20 -34.14785 151.22916 3030 ft 182 kts 344°
2026-04-26 10:20 -34.13566 151.22541 3025 ft 178 kts 348°
2026-04-26 10:20 -34.12338 151.22219 3032 ft 184 kts 348°
2026-04-26 10:20 -34.11101 151.21892 2944 ft 174 kts 349°
2026-04-26 10:21 -34.09976 151.21598 2735 ft 160 kts 349°
2026-04-26 10:21 -34.08899 151.21317 2504 ft 157 kts 350°
2026-04-26 10:21 -34.07848 151.21043 2306 ft 150 kts 350°
2026-04-26 10:21 -34.06882 151.20789 2102 ft 136 kts 350°
2026-04-26 10:22 -34.05979 151.20554 1928 ft 134 kts 351°
2026-04-26 10:22 -34.05078 151.20320 1742 ft 129 kts 350°
2026-04-26 10:22 -34.04187 151.20086 1579 ft 133 kts 351°
2026-04-26 10:22 -34.03295 151.19855 1408 ft 130 kts 350°
2026-04-26 10:23 -34.02401 151.19621 1224 ft 132 kts 351°
2026-04-26 10:23 -34.01516 151.19393 1062 ft 132 kts 350°
2026-04-26 10:23 -34.00626 151.19156 871 ft 130 kts 350°
2026-04-26 10:23 -33.99725 151.18906 710 ft 135 kts 349°
2026-04-26 10:24 -33.98827 151.18675 513 ft 130 kts 351°
2026-04-26 10:24 -33.97925 151.18457 358 ft 133 kts 349°
2026-04-26 10:24 -33.97034 151.18218 170 ft 130 kts 349°
2026-04-26 10:24 -33.96150 151.17986 36 ft 130 kts 349°
2026-04-26 10:25 -33.95401 151.17796 27 ft 83 kts 347°
2026-04-26 10:25 -33.95024 151.17701 28 ft 42 kts 348°
2026-04-26 10:25 -33.94786 151.17640 28 ft 27 kts 348°
2026-04-26 10:25 -33.94620 151.17596 30 ft 22 kts 344°
2026-04-26 10:26 -33.94475 151.17503 29 ft 26 kts 325°
2026-04-26 10:26 -33.94336 151.17360 30 ft 19 kts 317°
2026-04-26 10:26 -33.94303 151.17327 29 ft 0 kts 326°
2026-04-26 10:26 -33.94301 151.17325 29 ft 0 kts 326°
2026-04-26 10:27 -33.94292 151.17318 29 ft 6 kts 327°
2026-04-26 10:27 -33.94222 151.17288 27 ft 15 kts 348°
2026-04-26 10:27 -33.94100 151.17257 27 ft 19 kts 348°
2026-04-26 10:27 -33.93942 151.17218 26 ft 27 kts 348°
2026-04-26 10:28 -33.93743 151.17163 25 ft 31 kts 348°
2026-04-26 10:28 -33.93561 151.17118 30 ft 13 kts 348°
2026-04-26 10:28 -33.93504 151.17075 26 ft 10 kts 283°
2026-04-26 10:28 -33.93507 151.16998 31 ft 8 kts 257°
2026-04-26 10:29 -33.93522 151.16926 31 ft 10 kts 254°
2026-04-26 10:29 -33.93544 151.16857 31 ft 6 kts 243°
2026-04-26 10:29 -33.93558 151.16827 26 ft 6 kts 238°
2026-04-26 10:29 -33.93563 151.16818 26 ft 0 kts 238°